Location: Wien
(48.2082°N, 16.3738°E)
Time: 15:04:17
(UTC+01:00)

STRAND 1 - Visible Passes

Search period start: 18 March 2019 00:00
Search period end: 28 March 2019 00:00
Orbit: 768 x 781 km, 98.5° (Epoch: 18 March)

Date Brightness Start Highest point End Pass type
(mag) Time Alt. Az. Time Alt. Az. Time Alt. Az.
18 Mar ? 19:34:52 10° NNE 19:40:02 76° ESE 19:45:08 10° S visible
18 Mar ? 21:15:10 10° NNW 21:18:38 19° WNW 21:22:05 10° W visible
19 Mar ? 05:16:31 10° ESE 05:20:38 25° ENE 05:24:44 10° N visible
19 Mar ? 19:01:08 10° NNE 19:05:56 39° E 19:10:41 10° SSE visible
19 Mar ? 20:40:30 10° N 20:45:01 32° WNW 20:49:32 10° SW visible
20 Mar ? 04:44:28 10° E 04:47:06 14° NE 04:49:43 10° NNE visible
20 Mar ? 20:06:12 10° N 20:11:15 60° WNW 20:16:16 10° SSW visible
20 Mar ? 21:48:07 10° NW 21:49:24 11° NW 21:50:41 10° WNW visible
21 Mar ? 19:32:09 10° NNE 19:37:18 72° ESE 19:42:23 10° S visible
21 Mar ? 21:12:23 10° NNW 21:15:57 19° WNW 21:19:30 10° WSW visible
22 Mar ? 05:13:55 10° ESE 05:17:56 24° ENE 05:21:57 10° N visible
22 Mar ? 18:58:26 10° NNE 19:03:11 37° E 19:07:53 10° SSE visible
22 Mar ? 20:37:44 10° N 20:42:19 34° WNW 20:46:52 10° SW visible
23 Mar ? 04:41:59 10° E 04:44:25 14° NE 04:46:51 10° NNE visible
23 Mar ? 20:03:27 10° N 20:08:32 63° WNW 20:13:33 10° SSW visible
23 Mar ? 21:45:07 10° NNW 21:46:44 11° NW 21:48:20 10° WNW visible
24 Mar ? 19:29:26 10° NNE 19:34:34 68° ESE 19:39:38 10° S visible
24 Mar ? 21:09:35 10° NNW 21:13:15 20° WNW 21:16:54 10° WSW visible
25 Mar ? 05:11:19 10° ESE 05:15:14 23° ENE 05:19:10 10° N visible
25 Mar ? 18:55:45 10° NNE 19:00:26 35° E 19:05:05 10° SSE visible
25 Mar ? 20:34:58 10° N 20:39:37 36° WNW 20:44:13 10° SW visible
26 Mar ? 04:39:30 10° E 04:41:44 13° NE 04:43:58 10° NNE visible
26 Mar ? 20:00:43 10° N 20:05:48 67° WNW 20:10:51 10° SSW visible
26 Mar ? 21:42:10 10° NNW 21:44:02 12° NW 21:45:54 10° WNW visible
27 Mar ? 19:26:43 10° NNE 19:31:50 65° ESE 19:36:53 10° S visible
27 Mar ? 21:06:47 10° NNW 21:10:33 21° WNW 21:14:18 10° WSW visible
